Find Starlink 11434

NORAD ID: 62420 Int'l Des: 2024-249 Owner: SPXS Country: US Constellation: starlink operational
別名: STARLINK-11434 [DTC] celestrak
LEOCIRCULAR

現在のビュー

3D地球を読み込み中...

About Starlink 11434

Starlink 11434 (NORAD 62420) is a starlink constellation satellite (v2 mini d2c) launched Dec 23, 2024 by SPXS of US. It operates in LEO, CIRCULAR orbit with a mass of 960.00 kg.

次回通過

Passes for default location (London). Set your location on the main map for personalized predictions.

高度履歴

Loading altitude history...

軌道要素

1 62420U 24249M 26262.78166073 .00142240 00000-0 10882-2 0 9995
2 62420 43.0002 77.9643 0001404 252.4500 107.6214 15.70947164100004
Epoch: Sep 19, 2026 • Age: 27 hours

現在のステータス

高度 367.2 km
遠地点 / 近地点 N/A
速度 7.69 km/s
衛星直下点 -41.84°S, 30.23°E
打ち上げ日 Dec 23, 2024
運用期間 1.7 years
タイプ internet

技術仕様

分類 Payload
質量 960.00 kg
乾燥質量 910.00 kg
長さ 0.30 m
スパン 29.00 m
形状 ? Box + pan
製造者 SPXS
バスタイプ Starlink V2MD
フェーズステータス In Orbit
所有者/国 SPXS/US

Most Searched